{"data":{"norad_id":39481,"epoch":"2026-09-20T04:03:44.851104Z","epoch_age_seconds":50412,"freshness":"FRESH","line1":"1 39481U 13075A   26263.16926911 -.00000199  00000+0  00000+0 0  9993","line2":"2 39481   0.0394  11.3094 0002158 149.0396 172.4741  1.00272306 46556","mean_motion":1.00272306,"eccentricity":0.0002158,"inclination_deg":0.0394,"raan_deg":11.3094,"arg_perigee_deg":149.0396,"mean_anomaly_deg":172.4741,"bstar":0,"rev_number":4655,"period_min":1436.0894422833,"perigee_km":35777.349788972,"apogee_km":35795.548024249,"semimajor_km":42164.58590661,"source":"CELESTRAK","updated_at":"2026-09-20T09:00:35.207942Z"}}